Tracking 23762 objects as of 22-Oct-2021
HD Live streaming from Space Station
objects crossing your sky now

CZ-3C DEB

Track CZ-3C DEB now!


NORAD ID: 40868
Int'l Code: 2012-008AJ
Perigee: 1,433.2 km
Apogee: 34,577.4 km
Inclination: 22.0 °
Period: 631.3 minutes
Semi major axis: 24376 km
RCS: Unknown
Launch date: February 24, 2012
Source: People's Republic of China (PRC)
Launch site: Xichang Space Center, China (XSC)

Note: This is SATELLITE DEBRIS
aabbcc
Your satellite tracking list
Your tracking list is empty




NASA's NSSDC Master Catalog

Two Line Element Set (TLE):
1 40868U 12008AJ  21291.50793085 -.00000032  00000-0  00000+0 0  9994
2 40868  21.9652  57.1092 6798432 259.5613  23.4801  2.28113336957162
Source of the keplerian elements: AFSPC